Back to catalog

TITAN 3C TRANSTAGE DEB

AliveMEO
NORAD 38690·DEBRIS·🇺🇸 United States

Launched Sep 26, 1968 from Cape Canaveral Space Force Station

Loading…

Next Passes (next 24 hours)

TLE

FreshSource: Space-Track

Epoch: Sep 14, 2026, 06:41 UTC

1 38690U 68081Q   26257.27855993 -.00000282  00000-0  00000-0 0  9992
2 38690   1.9797  25.0796 0246989 323.5242  35.1679  0.99326292 51378

Track TITAN 3C TRANSTAGE DEB in real time with AllMySat

Download on the App Store